Theta_e
311 312 312 312 312 312 313 307 307 306 307 308 308 309 310 310 311 318 325 322 321 316 320 322 322 323 323 326 324 324 325 327 330 330 338 341 340 341 343 342 342 344 348 348 344
311 311 311 311 312 312 313 309 306 306 308 308 309 310 311 311 318 323 322 319 320 320 322 322 323 324 324 325 324 324 325 327 329 330 340 340 337 339 339 341 344 348 346 344 343
310 310 310 311 311 311 313 313 308 308 309 309 311 312 312 312 326 326 320 321 319 318 323 323 324 324 325 324 325 324 325 328 330 334 335 336 336 335 337 338 341 346 347 345 345
308 308 309 309 311 311 312 313 310 310 310 311 313 314 313 320 330 325 321 321 319 320 323 324 324 324 325 324 325 325 326 326 327 331 334 335 335 334 336 336 337 342 342 342 341
308 308 308 308 308 310 312 314 312 312 312 312 313 314 317 325 327 321 320 320 320 322 324 325 324 325 325 325 325 325 324 325 327 331 333 333 332 333 333 336 336 337 337 337 334
307 307 307 307 307 310 311 315 313 314 315 315 314 314 321 328 325 321 322 322 323 323 324 325 326 325 326 325 325 326 325 326 329 332 332 333 330 332 332 332 335 336 335 332 330
305 306 306 307 307 310 312 315 315 315 315 315 315 318 324 326 324 323 323 323 323 323 325 324 325 325 327 325 326 326 324 325 328 332 333 329 330 330 331 332 335 334 333 331 331
306 305 305 306 307 309 312 316 317 315 315 314 315 322 327 323 322 325 323 322 322 323 323 324 324 326 327 328 325 325 325 325 326 328 328 328 330 329 331 331 333 333 333 331 331
307 306 306 306 307 309 312 317 314 316 315 315 320 325 323 321 322 322 323 323 323 322 323 322 323 325 326 328 326 325 325 326 326 326 327 328 327 328 330 331 332 332 333 332 332
307 306 306 306 308 310 313 317 321 317 318 321 323 325 323 324 323 323 323 323 323 324 324 323 323 326 326 326 328 328 327 327 327 327 326 328 327 329 330 331 331 332 331 332 332
305 305 306 306 310 311 314 321 326 327 326 326 326 323 323 324 324 323 324 323 324 324 325 326 325 326 325 326 327 328 329 327 328 328 327 328 329 328 330 331 331 331 330 330 331
304 304 305 306 310 314 318 324 321 320 324 323 323 323 323 324 325 324 323 324 324 325 325 328 326 326 325 326 325 326 328 328 327 327 327 327 327 329 329 330 331 331 331 331 331
303 304 305 306 312 318 320 320 318 320 324 323 323 323 323 324 326 325 324 324 324 325 326 326 327 326 326 326 326 326 326 327 327 327 327 327 328 329 329 330 331 331 331 331 331
302 304 305 306 315 319 319 318 318 320 325 326 323 323 323 323 325 325 323 324 324 324 325 325 325 325 325 325 326 326 325 326 327 328 329 328 329 329 329 330 330 331 331 331 332
302 304 305 306 315 320 319 317 318 322 325 323 322 324 324 323 326 325 324 324 324 324 325 326 325 325 326 326 325 326 326 326 326 327 328 327 328 328 328 330 330 331 331 331 331
303 304 305 313 318 320 317 317 321 325 325 323 325 323 323 323 325 326 325 324 324 325 325 325 325 324 325 325 325 325 325 325 325 325 327 327 327 326 327 329 329 328 329 330 330
304 304 307 310 319 318 318 319 326 325 321 322 324 325 324 323 325 326 326 325 326 326 326 325 324 324 324 325 325 325 326 329 329 329 327 327 326 326 328 329 329 328 329 329 330
304 306 313 313 316 317 319 322 328 325 324 327 326 324 325 324 324 325 326 326 326 326 327 328 328 324 323 324 325 326 326 331 343 331 327 327 326 328 330 328 328 329 330 331 332
304 311 313 318 317 317 322 323 325 325 322 322 325 325 325 325 325 326 326 327 327 326 328 328 327 325 324 323 324 326 327 326 329 330 330 329 327 329 328 328 328 328 330 331 330
307 311 314 317 318 320 323 320 321 322 324 324 324 324 325 326 326 327 327 326 326 326 326 328 329 325 324 323 323 324 325 327 327 332 335 331 329 329 329 328 329 329 329 329 330
311 317 318 317 318 325 324 321 320 323 324 323 323 325 326 328 327 326 326 326 326 326 326 327 329 329 324 324 324 325 325 327 328 331 339 337 331 329 327 328 328 329 329 329 331
312 318 317 317 323 323 324 322 317 322 324 324 324 325 324 326 326 327 327 327 326 326 327 326 328 330 329 326 325 325 327 327 330 332 332 334 335 328 327 327 327 328 328 331 331
314 315 315 316 323 324 323 325 322 321 324 324 324 324 324 323 325 325 326 326 324 325 329 330 329 330 330 328 327 325 325 326 329 331 333 345 338 330 328 328 328 328 328 331 330
313 317 318 319 319 326 327 325 323 322 323 324 325 324 326 327 324 324 324 326 325 325 325 327 332 332 336 330 330 331 330 325 328 331 332 332 329 330 330 329 330 329 330 329 330
313 315 320 323 320 320 322 325 324 325 322 323 324 325 327 328 327 326 325 323 324 324 326 329 332 329 328 330 329 329 330 329 327 327 329 330 329 328 328 329 330 329 329 330 328
314 314 316 315 321 323 319 323 324 324 325 325 326 327 326 328 328 330 331 328 328 327 327 330 332 330 330 328 328 328 327 327 329 327 327 327 328 327 330 328 329 329 329 328 325
311 310 313 313 316 318 320 321 323 324 324 324 324 326 326 326 329 329 329 329 330 331 331 330 329 331 333 329 327 330 329 327 329 327 326 327 328 330 330 329 329 329 328 327 323
Wind_Speed
27 26 25 24 23 23 14 9 6 6 6 7 8 8 9 11 12 9 12 4 5 6 8 8 11 14 13 16 10 12 11 10 10 8 15 13 10 3 7 11 7 4 15 18 16
29 28 26 25 24 23 17 8 6 5 6 6 7 7 9 11 13 17 7 6 9 9 11 12 13 13 13 13 8 12 14 12 7 5 16 16 13 11 8 11 11 14 17 17 15
29 29 28 27 24 23 20 8 5 5 5 5 5 6 8 9 14 9 11 11 10 9 10 8 9 11 17 12 14 15 16 7 3 6 11 16 8 12 13 12 16 13 15 14 13
29 29 28 28 25 22 20 10 4 4 5 5 5 5 7 6 2 11 12 12 9 9 10 10 12 13 14 13 6 16 7 1 8 5 10 10 7 7 11 11 13 16 15 13 12
29 28 28 28 27 23 20 12 6 4 4 5 5 5 5 10 8 9 13 12 8 9 13 11 12 14 12 10 8 16 6 8 8 11 9 10 7 10 3 5 13 17 14 13 11
29 29 29 29 30 23 19 14 7 6 5 5 5 5 9 13 8 13 13 10 11 11 6 9 6 6 7 7 14 4 6 7 11 10 9 9 11 4 10 7 13 15 14 13 12
29 30 30 30 30 23 18 13 8 6 5 5 5 6 12 6 6 13 13 11 7 6 8 5 5 10 3 6 4 6 11 9 11 13 9 13 10 11 12 11 14 14 13 11 11
30 32 32 30 32 23 15 11 5 5 4 4 6 7 10 6 8 15 13 9 6 6 9 3 8 13 12 4 10 12 15 12 14 12 10 13 15 15 14 15 16 16 14 12 13
32 33 33 32 33 22 12 7 1 4 4 3 6 10 11 10 12 15 15 14 11 8 6 4 11 13 10 12 13 13 14 17 18 16 11 14 17 19 17 16 16 15 15 14 13
33 34 34 34 34 18 10 6 4 4 5 6 11 7 9 13 17 17 15 10 8 9 9 10 9 11 12 14 14 15 16 15 15 16 17 15 19 15 17 18 16 15 16 17 16
33 34 35 35 31 10 9 5 6 7 15 14 1 9 6 7 8 15 15 13 10 10 13 13 11 14 19 18 19 14 11 15 11 14 16 18 17 18 17 17 18 16 16 17 18
33 33 35 34 21 7 7 5 7 7 9 15 16 13 5 6 12 15 18 14 13 14 14 7 13 16 12 10 15 12 15 14 9 6 9 16 18 18 17 18 19 18 17 17 16
32 33 35 34 10 6 6 6 7 9 7 12 14 16 16 14 14 16 16 18 14 15 13 15 4 3 2 9 11 15 16 13 11 13 13 15 18 16 19 16 19 20 18 16 16
32 31 32 34 6 13 4 3 9 5 6 12 10 9 17 14 17 14 20 14 10 14 13 12 9 7 10 12 11 13 11 10 8 9 13 22 14 18 20 17 18 20 18 17 15
32 30 30 17 12 8 7 7 9 4 6 7 9 7 12 18 3 19 19 15 15 13 8 14 11 10 13 14 12 4 8 5 10 13 15 17 9 15 10 15 17 17 18 17 14
32 29 30 6 8 7 9 8 6 7 9 7 7 11 14 18 9 17 16 15 12 14 14 19 2 8 14 12 7 2 5 7 10 12 13 16 14 14 7 16 13 15 18 16 13
33 31 21 10 7 10 9 8 7 9 6 7 8 12 16 17 16 12 17 18 14 11 13 15 15 12 7 8 8 10 9 8 11 11 13 2 5 12 6 5 5 3 5 5 7
34 26 11 10 10 10 7 9 10 4 16 4 5 7 13 15 20 16 18 17 19 16 13 13 14 17 12 17 11 12 15 6 7 8 3 9 6 3 6 5 1 6 5 5 6
33 14 11 6 7 6 8 12 10 12 2 2 9 12 14 12 8 18 18 17 18 18 14 7 11 7 14 15 16 13 14 11 12 15 10 11 6 9 8 5 6 8 7 7 6
20 17 16 2 2 7 9 16 13 0 3 6 13 5 11 15 12 18 15 14 14 12 14 9 9 10 9 9 11 14 9 10 8 7 15 15 11 3 10 8 7 7 7 6 7
10 5 7 1 4 7 10 17 17 9 5 8 11 5 12 4 7 15 12 9 5 13 12 15 8 5 9 12 16 10 14 11 11 11 9 7 3 8 3 6 3 8 11 13 13
7 6 6 3 8 10 12 15 4 5 9 9 6 9 7 6 9 13 3 2 7 10 9 17 7 13 15 14 17 16 14 18 11 14 8 11 11 9 0 1 4 10 3 10 11
4 7 3 4 7 10 10 5 6 11 10 11 9 10 8 11 9 11 7 9 7 6 3 8 9 13 16 12 9 12 16 14 13 12 13 7 5 1 1 4 5 6 2 10 9
4 4 6 7 11 10 11 10 12 8 10 8 7 8 9 10 9 8 8 6 4 4 7 5 9 9 11 17 14 6 21 20 17 13 12 15 15 9 9 7 7 1 5 9 8
4 3 5 3 8 9 9 8 14 10 13 11 12 12 13 12 14 14 13 14 6 7 6 5 14 16 15 16 18 18 18 24 20 19 16 14 13 8 2 6 6 6 8 11 10
5 4 3 9 4 7 7 14 13 12 6 11 13 14 10 11 11 2 10 2 9 7 8 6 9 14 18 18 14 17 21 22 30 11 17 18 15 8 11 8 7 9 10 10 9
1 9 5 2 9 10 11 13 10 7 5 11 6 6 10 5 8 9 5 7 8 6 10 8 10 14 23 19 14 14 27 24 27 25 16 12 6 11 8 9 10 10 9 10 7
Wind_Direction
21 18 16 12 10 8 360 342 315 288 277 273 277 283 287 290 291 271 246 106 176 181 197 217 216 222 227 244 231 229 259 236 228 184 140 148 159 30 78 120 84 40 65 116 142
17 15 11 8 5 1 358 341 319 288 272 269 275 283 289 296 285 256 174 170 182 198 212 204 204 206 220 228 211 230 237 247 164 237 135 159 185 147 173 138 127 102 111 134 151
13 13 10 6 1 357 354 335 310 285 269 264 272 284 293 305 269 164 155 182 196 207 251 251 268 213 236 226 217 220 261 80 64 346 136 172 173 154 196 191 150 148 142 150 158
9 8 6 3 359 351 351 334 292 274 266 257 270 281 288 268 301 106 167 190 204 222 248 219 219 216 236 213 208 261 329 354 181 192 160 162 141 193 232 53 117 129 151 155 173
4 3 2 360 358 347 346 335 290 254 253 254 267 277 275 222 241 142 175 190 212 229 239 218 212 228 239 215 207 250 191 248 150 202 190 150 168 201 179 86 119 135 153 162 164
1 360 359 357 354 345 341 335 291 250 240 246 251 264 237 251 107 142 165 189 230 225 214 247 259 269 273 232 223 152 179 197 182 193 184 165 202 156 138 162 139 156 162 169 154
359 357 356 354 351 341 337 332 297 246 232 234 233 243 259 284 164 165 180 202 212 261 220 233 303 219 210 206 219 193 192 192 197 191 168 229 185 211 156 181 165 178 179 167 171
356 355 354 352 347 338 331 329 286 250 244 218 212 242 265 166 187 185 193 207 212 230 285 296 251 276 237 67 205 206 216 195 191 186 211 221 223 190 152 183 183 190 185 185 189
353 351 351 349 346 335 325 316 262 221 228 218 239 226 239 163 196 192 197 210 199 226 229 274 247 241 204 220 203 208 220 213 178 194 209 214 252 167 162 190 196 197 194 197 200
349 349 347 346 344 331 323 288 254 213 224 239 263 246 220 201 194 193 199 235 207 201 209 224 224 224 234 223 219 203 232 225 198 186 227 211 243 164 171 197 210 201 207 202 211
347 347 345 345 342 336 327 262 213 202 218 246 255 242 122 143 159 202 192 205 218 213 229 194 226 220 224 228 252 287 226 255 200 193 198 229 219 255 176 205 210 210 209 212 209
345 345 342 343 343 358 314 278 34 345 292 256 244 246 161 199 197 213 186 204 203 225 214 196 233 253 235 231 239 264 262 243 217 163 247 233 240 232 211 202 223 218 216 215 220
343 344 342 341 338 337 322 42 336 328 260 260 219 222 212 210 225 203 198 207 208 225 211 246 351 113 213 228 238 237 241 240 231 199 231 259 257 230 236 198 220 229 228 227 223
341 341 341 339 296 329 258 315 330 317 269 160 196 226 205 198 225 207 200 216 228 241 225 239 237 211 219 238 225 234 219 279 292 231 242 214 253 232 222 210 220 230 231 232 233
338 338 334 336 305 303 343 309 319 247 266 132 139 108 181 199 211 200 193 217 244 222 254 228 217 211 221 224 210 275 21 227 258 260 265 256 237 277 246 207 215 235 236 237 240
332 335 330 327 255 288 315 289 262 231 245 152 165 191 191 202 200 174 198 221 240 257 214 262 164 266 234 228 239 126 229 245 258 254 251 243 259 253 254 199 218 226 223 228 246
327 330 314 278 283 318 309 240 224 242 99 168 197 191 193 191 199 185 196 206 215 218 224 224 239 220 255 223 205 220 218 232 217 221 238 178 264 281 82 50 325 342 262 238 237
326 327 297 241 280 295 256 221 244 245 237 56 281 234 211 187 211 197 195 213 216 219 263 222 210 208 183 235 209 218 239 243 271 264 236 143 235 187 72 59 293 250 220 186 198
330 318 268 226 293 237 229 221 220 252 11 251 231 239 208 209 219 211 220 216 215 215 247 247 251 180 192 215 248 236 216 267 271 260 283 278 228 175 143 175 215 220 188 185 180
323 306 263 221 246 219 230 240 233 175 336 244 250 231 244 189 209 223 202 226 237 203 220 246 268 176 187 247 249 264 282 221 237 270 261 258 250 214 155 189 190 204 193 204 181
291 265 114 241 210 222 228 229 237 144 233 245 258 275 259 312 215 247 219 187 238 235 232 234 234 223 158 207 232 188 239 240 279 228 242 274 323 56 79 170 267 205 210 199 165
284 248 117 200 230 225 236 230 323 181 204 242 278 288 282 211 250 262 244 224 21 328 257 219 250 251 242 223 226 253 212 216 234 243 232 234 252 339 193 262 269 272 321 104 158
269 283 185 238 243 229 226 261 234 227 216 223 230 239 247 259 251 264 238 79 29 291 345 318 223 248 251 238 218 239 245 258 230 248 257 176 263 189 234 246 265 273 307 97 108
274 264 186 210 265 287 274 218 214 236 248 222 246 238 230 231 249 260 235 200 118 354 339 298 265 242 255 275 313 307 293 242 234 247 234 257 272 284 211 207 146 262 106 128 146
241 242 6 208 222 254 266 283 223 190 236 211 220 231 225 234 238 232 232 260 219 150 238 262 243 256 259 274 298 315 243 280 243 225 240 253 256 281 28 53 114 140 151 132 125
296 278 185 270 270 249 230 243 248 228 215 215 243 206 233 242 249 276 340 295 258 176 256 204 262 254 257 254 257 301 300 292 271 261 260 245 262 278 110 121 141 164 150 142 115
30 265 273 257 218 241 237 227 230 288 190 283 228 216 212 265 341 355 344 301 291 277 281 266 258 247 255 260 299 283 271 283 305 294 241 261 260 82 130 149 158 153 148 123 114